SWR524D LSZH-EGLL

Flight info

Callsign SWR524D
Flight time N/A
Altitude 40000
Route VEBIT T10 TORPA DCT REKLA DCT RLP DCT ROTSI DCT KOTUN DCT NINAL DCT ABNUR DCT DIMAL DCT ALESO
Aircraft A359/H-SDE2E3GHIJ3J4J5LM1ORWXY/LB1D1

Departure

Time N/A
Airport Zürich Airport (LSZH)

Arrival

Time 2026-05-04 10:56
Airport London Heathrow Airport (EGLL)
Time Latitude Longitude Altitude Speed Heading
2026-05-04 10:42 51.32553 0.04096 7574 ft 258 kts 303°
2026-05-04 10:42 51.33167 0.01553 7122 ft 247 kts 276°
2026-05-04 10:42 51.33284 -0.01116 6819 ft 239 kts 270°
2026-05-04 10:43 51.33345 -0.03987 6652 ft 240 kts 270°
2026-05-04 10:44 51.33860 -0.20823 5799 ft 199 kts 281°
2026-05-04 10:45 51.34492 -0.22766 5745 ft 202 kts 315°
2026-05-04 10:45 51.35785 -0.23731 5694 ft 203 kts 355°
2026-05-04 10:45 51.37106 -0.23259 5617 ft 203 kts 32°
2026-05-04 10:45 51.38011 -0.21577 5509 ft 202 kts 70°
2026-05-04 10:46 51.38158 -0.19378 5454 ft 199 kts 98°
2026-05-04 10:46 51.37952 -0.17184 5394 ft 200 kts 101°
2026-05-04 10:46 51.37716 -0.15008 5338 ft 200 kts 101°
2026-05-04 10:46 51.37487 -0.12817 5296 ft 200 kts 101°
2026-05-04 10:47 51.37264 -0.10613 5229 ft 199 kts 100°
2026-05-04 10:47 51.37047 -0.08414 5147 ft 199 kts 99°
2026-05-04 10:47 51.36860 -0.06258 4989 ft 196 kts 96°
2026-05-04 10:47 51.36886 -0.04081 4819 ft 197 kts 83°
2026-05-04 10:49 51.43967 0.03154 3598 ft 194 kts 342°
2026-05-04 10:49 51.45191 0.02288 3548 ft 194 kts 329°
2026-05-04 10:50 51.46256 0.00966 3495 ft 194 kts 315°
2026-05-04 10:51 51.47833 -0.13607 2962 ft 197 kts 270°
2026-05-04 10:52 51.47832 -0.15802 2958 ft 196 kts 270°
2026-05-04 10:52 51.47833 -0.18109 2963 ft 219 kts 270°
2026-05-04 10:52 51.47834 -0.20655 2882 ft 232 kts 270°
2026-05-04 10:54 51.47789 -0.35871 1064 ft 150 kts 272°
2026-05-04 10:54 51.47785 -0.37473 861 ft 139 kts 273°
2026-05-04 10:56 51.47681 -0.46114 97 ft 16 kts 154°
2026-05-04 10:56 51.47600 -0.46070 96 ft 10 kts 190°
2026-05-04 10:56 51.47529 -0.46134 95 ft 12 kts 243°
2026-05-04 10:57 51.47508 -0.46262 96 ft 6 kts 227°
2026-05-04 10:57 51.47465 -0.46295 96 ft 9 kts 202°
2026-05-04 10:57 51.47435 -0.46313 95 ft 1 kts 199°
2026-05-04 10:57 51.47427 -0.46317 95 ft 0 kts 200°